• en France
  • Liste des pays
  • À 7 jours
  • Température de l'eau
  • Carte satellitaire
  • Carte météo
  • Widgets météo
  • user-avatar
    Se connecter

    Météo par heure à Graz

    Ce jour, 15 Octobre, Lundi

    Heure Température Précipitation Vent Pression Humidité
    00:00 +10°C° 0 mm 1 m/s 727 mmHg 72%
    01:00 +10°C° 0 mm 1 m/s 727 mmHg 72%
    02:00 +10°C° 0 mm 1 m/s 727 mmHg 73%
    03:00 +10°C° 0 mm 1 m/s 727 mmHg 73%
    04:00 +10°C° 0 mm 1 m/s 727 mmHg 73%
    05:00 +10°C° 0 mm 1 m/s 727 mmHg 73%
    06:00 +10°C° 0 mm 1 m/s 727 mmHg 72%
    07:00 +10°C° 0 mm 1 m/s 727 mmHg 68%
    08:00 +13°C° 0 mm 1 m/s 727 mmHg 61%
    09:00 +15°C° 0 mm 1 m/s 727 mmHg 54%
    10:00 +18°C° 0 mm 1 m/s 727 mmHg 46%
    11:00 +18°C° 0 mm 1 m/s 727 mmHg 46%
    12:00 +19°C° 0 mm 1 m/s 727 mmHg 45%
    13:00 +19°C° 0 mm 2 m/s 727 mmHg 45%
    14:00 +19°C° 0.1 mm 1 m/s 726 mmHg 51%
    15:00 +18°C° 0.1 mm 1 m/s 726 mmHg 57%
    16:00 +16°C° 0.1 mm 1 m/s 726 mmHg 63%
    17:00 +15°C° 0 mm 1 m/s 726 mmHg 67%
    18:00 +13°C° 0 mm 1 m/s 726 mmHg 71%
    19:00 +12°C° 0 mm 1 m/s 726 mmHg 74%
    20:00 +12°C° 0 mm 1 m/s 726 mmHg 76%
    21:00 +11°C° 0 mm 1 m/s 726 mmHg 78%
    22:00 +11°C° 0 mm 1 m/s 726 mmHg 80%
    23:00 +10°C° 0 mm 1 m/s 726 mmHg 81%

    Demain, 16 Octobre, Mardi

    Heure Température Précipitation Vent Pression Humidité
    00:00 +10°C° 0 mm 1 m/s 726 mmHg 82%
    01:00 +10°C° 0 mm 1 m/s 726 mmHg 84%
    02:00 +10°C° 0 mm 1 m/s 726 mmHg 85%
    03:00 +10°C° 0 mm 1 m/s 726 mmHg 86%
    04:00 +10°C° 0 mm 1 m/s 726 mmHg 87%
    05:00 +10°C° 0 mm 1 m/s 726 mmHg 87%
    06:00 +10°C° 0 mm 1 m/s 726 mmHg 87%
    07:00 +10°C° 0 mm 1 m/s 727 mmHg 87%
    08:00 +13°C° 0 mm 1 m/s 727 mmHg 79%
    09:00 +15°C° 0 mm 1 m/s 727 mmHg 72%
    10:00 +18°C° 0 mm 1 m/s 727 mmHg 64%
    11:00 +19°C° 0 mm 1 m/s 727 mmHg 62%
    12:00 +19°C° 0 mm 1 m/s 727 mmHg 61%
    13:00 +20°C° 0 mm 1 m/s 727 mmHg 59%
    14:00 +19°C° 0 mm 1 m/s 727 mmHg 64%
    15:00 +19°C° 0 mm 1 m/s 727 mmHg 69%
    16:00 +18°C° 0 mm 1 m/s 727 mmHg 74%
    17:00 +16°C° 0.2 mm 1 m/s 727 mmHg 80%
    18:00 +14°C° 0.2 mm 1 m/s 727 mmHg 86%
    19:00 +13°C° 0.2 mm 1 m/s 727 mmHg 92%
    20:00 +13°C° 0.1 mm 1 m/s 727 mmHg 92%
    21:00 +13°C° 0.1 mm 1 m/s 727 mmHg 93%
    22:00 +12°C° 0.1 mm 1 m/s 727 mmHg 94%
    23:00 +12°C° 0 mm 1 m/s 727 mmHg 94%

    Après-demain, 17 Octobre, Mercredi

    Heure Température Précipitation Vent Pression Humidité
    00:00 +12°C° 0 mm 1 m/s 727 mmHg 94%
    01:00 +12°C° 0 mm 1 m/s 727 mmHg 94%
    02:00 +11°C° 0.1 mm 1 m/s 727 mmHg 93%
    03:00 +11°C° 0.1 mm 1 m/s 727 mmHg 93%
    04:00 +11°C° 0.1 mm 1 m/s 726 mmHg 93%
    05:00 +10°C° 0.1 mm 0 m/s 726 mmHg 92%
    06:00 +11°C° 0.1 mm 0 m/s 726 mmHg 91%
    07:00 +11°C° 0.1 mm 0 m/s 727 mmHg 90%
    08:00 +13°C° 0.1 mm 0 m/s 727 mmHg 84%
    09:00 +14°C° 0.1 mm 0 m/s 727 mmHg 79%
    10:00 +18°C° 0.1 mm 1 m/s 727 mmHg 73%
    11:00 +19°C° 0.2 mm 1 m/s 727 mmHg 73%
    12:00 +19°C° 0.2 mm 1 m/s 726 mmHg 73%
    13:00 +19°C° 0.2 mm 1 m/s 726 mmHg 73%
    14:00 +19°C° 0.2 mm 1 m/s 726 mmHg 77%
    15:00 +18°C° 0.2 mm 1 m/s 725 mmHg 81%
    16:00 +18°C° 0.2 mm 1 m/s 725 mmHg 85%
    17:00 +16°C° 0.1 mm 1 m/s 725 mmHg 88%
    18:00 +15°C° 0.1 mm 1 m/s 725 mmHg 92%
    19:00 +14°C° 0.1 mm 1 m/s 725 mmHg 95%
    20:00 +14°C° 0.1 mm 1 m/s 725 mmHg 95%
    21:00 +14°C° 0.1 mm 1 m/s 726 mmHg 94%
    22:00 +14°C° 0.1 mm 1 m/s 726 mmHg 94%
    23:00 +13°C° 0.1 mm 1 m/s 726 mmHg 93%

    18 Octobre, Jeudi

    Heure Température Précipitation Vent Pression Humidité
    00:00 +13°C° 0.1 mm 1 m/s 725 mmHg 93%
    01:00 +13°C° 0.1 mm 1 m/s 725 mmHg 93%
    02:00 +12°C° 0 mm 0 m/s 725 mmHg 92%
    03:00 +12°C° 0 mm 0 m/s 725 mmHg 92%
    04:00 +12°C° 0 mm 0 m/s 725 mmHg 92%
    05:00 +12°C° 0.1 mm 0 m/s 725 mmHg 91%
    06:00 +12°C° 0.1 mm 0 m/s 725 mmHg 91%
    07:00 +12°C° 0.1 mm 0 m/s 725 mmHg 90%
    08:00 +13°C° 0.1 mm 0 m/s 725 mmHg 85%
    09:00 +15°C° 0.1 mm 0 m/s 725 mmHg 80%
    10:00 +16°C° 0.1 mm 0 m/s 725 mmHg 75%
    11:00 +18°C° 0.1 mm 1 m/s 725 mmHg 72%
    12:00 +19°C° 0.1 mm 1 m/s 725 mmHg 70%
    13:00 +19°C° 0.1 mm 1 m/s 725 mmHg 67%
    14:00 +19°C° 0 mm 1 m/s 725 mmHg 70%
    15:00 +18°C° 0 mm 1 m/s 725 mmHg 73%
    16:00 +18°C° 0 mm 1 m/s 724 mmHg 76%
    17:00 +15°C° 0 mm 1 m/s 725 mmHg 80%
    18:00 +14°C° 0 mm 1 m/s 725 mmHg 84%
    19:00 +12°C° 0 mm 0 m/s 725 mmHg 89%
    20:00 +12°C° 0 mm 0 m/s 725 mmHg 88%
    21:00 +13°C° 0 mm 1 m/s 725 mmHg 88%
    22:00 +12°C° 0 mm 1 m/s 726 mmHg 88%
    23:00 +12°C° 0 mm 1 m/s 726 mmHg 88%

    19 Octobre, Vendredi

    Heure Température Précipitation Vent Pression Humidité
    00:00 +12°C° 0 mm 1 m/s 726 mmHg 88%
    01:00 +12°C° 0 mm 1 m/s 726 mmHg 88%
    02:00 +12°C° 0 mm 1 m/s 725 mmHg 88%
    03:00 +12°C° 0 mm 1 m/s 725 mmHg 88%
    04:00 +12°C° 0 mm 1 m/s 725 mmHg 88%
    05:00 +12°C° 0 mm 1 m/s 726 mmHg 88%
    06:00 +12°C° 0 mm 1 m/s 726 mmHg 88%
    07:00 +12°C° 0 mm 1 m/s 726 mmHg 88%
    08:00 +14°C° 0 mm 1 m/s 726 mmHg 80%
    09:00 +16°C° 0 mm 1 m/s 726 mmHg 72%
    10:00 +19°C° 0 mm 1 m/s 727 mmHg 64%
    11:00 +20°C° 0 mm 1 m/s 727 mmHg 61%
    12:00 +21°C° 0 mm 1 m/s 727 mmHg 58%
    13:00 +21°C° 0 mm 1 m/s 726 mmHg 55%
    14:00 +21°C° 0 mm 1 m/s 726 mmHg 59%
    15:00 +20°C° 0 mm 1 m/s 726 mmHg 62%
    16:00 +19°C° 0 mm 1 m/s 726 mmHg 66%
    17:00 +16°C° 0 mm 1 m/s 726 mmHg 72%
    18:00 +15°C° 0 mm 1 m/s 726 mmHg 78%
    19:00 +13°C° 0 mm 1 m/s 727 mmHg 84%
    20:00 +13°C° 0 mm 1 m/s 727 mmHg 85%
    21:00 +12°C° 0 mm 1 m/s 727 mmHg 86%
    22:00 +12°C° 0 mm 1 m/s 728 mmHg 87%
    23:00 +12°C° 0 mm 1 m/s 728 mmHg 88%

    20 Octobre, Samedi

    Heure Température Précipitation Vent Pression Humidité
    00:00 +11°C° 0 mm 1 m/s 728 mmHg 88%
    01:00 +11°C° 0 mm 1 m/s 728 mmHg 89%
    02:00 +11°C° 0 mm 1 m/s 728 mmHg 90%
    03:00 +10°C° 0 mm 1 m/s 728 mmHg 90%
    04:00 +10°C° 0 mm 1 m/s 728 mmHg 90%
    05:00 +10°C° 0 mm 1 m/s 728 mmHg 90%
    06:00 +10°C° 0 mm 1 m/s 729 mmHg 90%
    07:00 +10°C° 0 mm 1 m/s 729 mmHg 89%
    08:00 +12°C° 0 mm 1 m/s 729 mmHg 80%
    09:00 +15°C° 0 mm 1 m/s 729 mmHg 71%
    10:00 +18°C° 0 mm 1 m/s 730 mmHg 62%
    11:00 +18°C° 0 mm 1 m/s 730 mmHg 60%
    12:00 +19°C° 0 mm 1 m/s 729 mmHg 57%
    13:00 +20°C° 0 mm 1 m/s 729 mmHg 55%
    14:00 +19°C° 0 mm 1 m/s 729 mmHg 58%
    15:00 +18°C° 0 mm 1 m/s 729 mmHg 62%
    16:00 +18°C° 0 mm 1 m/s 729 mmHg 66%
    17:00 +15°C° 0 mm 1 m/s 729 mmHg 73%
    18:00 +13°C° 0 mm 1 m/s 729 mmHg 79%
    19:00 +11°C° 0 mm 1 m/s 730 mmHg 86%
    20:00 +11°C° 0 mm 1 m/s 730 mmHg 86%
    21:00 +11°C° 0 mm 1 m/s 730 mmHg 87%
    22:00 +11°C° 0 mm 1 m/s 731 mmHg 88%
    23:00 +10°C° 0 mm 1 m/s 731 mmHg 89%
    Voir plus